Flag for Belarus Weather past 2 weeks in Barysaw, Belarus

Now
39 °F

Low clouds.


Feels Like: 32 °F
Forecast: 33 / 41 °F
Wind: 10 mph from Southeast

Location: Minsk

Current Time: Mar 2, 2015 at 10:39:31 PM

Latest Report: Mar 2, 2015 at 10:00 PM


Visibility: 5 mi

Pressure: 29.62 "Hg

Humidity: 93%

Dew point: 37 °F

Location of BarysawLocation

Historic Weather in Barysaw — Graph

°F

Barysaw temperature yesterday

Maximum temperature yesterday: 39 °F (at 4:00 PM)
Minimum temperature yesterday: 34 °F (at 12:00 AM)
Average temperature yesterday: 35 °F

Past Weeks' High & Low Weather Summary

 TemperatureHumidityPressure
High43 °F (Feb 22, 3:30 PM)100% (Feb 19, 4:30 AM)30.86 "Hg (Feb 19, 4:30 AM)
Low1 °F (Feb 17, 6:30 AM)26% (Feb 16, 4:00 PM)29.62 "Hg (Mar 2, 5:00 PM)
Average32 °F87%30.09 "Hg
* Reported Feb 15 9:00 PM — Mar 2 9:30 PM, Barysaw, Weather by CustomWeather, © 2015

Note: Actual official high and low records may vary slightly from our data, if they occured in-between our weather recording intervals... More about our weather records

Advertising

Barysaw weather history for previous 24 hours

 ConditionsComfort  
Time TempWeatherWind HumidityBarometerVisibility
9:30 PM
Mon, Mar 2
37 °FLow clouds.10 mph100%29.62 "Hg4 mi
9:00 PM37 °FLow clouds.10 mph100%29.62 "Hg4 mi
8:30 PM37 °FLow clouds.10 mph100%29.62 "Hg5 mi
8:00 PM37 °FDrizzle. Low clouds.10 mph100%29.62 "Hg5 mi
7:30 PM37 °FDrizzle. Fog.13 mph100%29.65 "Hg3 mi
7:00 PM37 °FLow clouds.10 mph100%29.62 "Hg4 mi
6:30 PM37 °FLow clouds.10 mph100%29.62 "Hg6 mi
6:00 PM37 °FLow clouds.10 mph100%29.62 "Hg4 mi
5:30 PM37 °FLow clouds.10 mph93%29.62 "Hg4 mi
5:00 PM37 °FLow clouds.10 mph93%29.62 "Hg4 mi
4:30 PM37 °FLow clouds.13 mph93%29.65 "Hg4 mi
4:00 PM37 °FLow clouds.10 mph100%29.65 "Hg5 mi
3:30 PM37 °FLight rain. Low clouds.10 mph93%29.65 "Hg5 mi
3:00 PM36 °FLight rain. Low clouds.10 mph100%29.65 "Hg4 mi
2:30 PM37 °FLight rain. Low clouds.10 mph93%29.65 "HgN/A
2:00 PM37 °FLight rain. Low clouds.10 mph100%29.65 "Hg5 mi
1:30 PM37 °FLow clouds.13 mph100%29.65 "Hg4 mi
1:00 PM37 °FFog.13 mph100%29.65 "Hg2 mi
12:30 PM37 °FFog.10 mph100%29.65 "Hg2 mi
12:00 PM37 °FFog.10 mph100%29.65 "Hg2 mi
11:30 AM37 °FFog.10 mph100%29.68 "Hg2 mi
11:00 AM37 °FFog.10 mph100%29.68 "Hg2 mi
10:30 AM37 °FFog.10 mph100%29.68 "Hg3 mi
10:00 AM37 °FFog.10 mph100%29.68 "Hg3 mi
9:30 AM37 °FFog.10 mph100%29.68 "Hg3 mi
9:00 AM37 °FFog.10 mph100%29.68 "Hg2 mi
8:30 AM37 °FFog.13 mph100%29.68 "Hg2 mi
8:00 AM37 °FFog.10 mph100%29.68 "Hg2 mi
7:30 AM37 °FFog.10 mph100%29.68 "Hg2 mi
7:00 AM37 °FLight rain. Fog.10 mph100%29.71 "Hg2 mi
6:30 AM37 °FLight rain. Fog.10 mph100%29.71 "Hg2 mi
6:00 AM37 °FFog.10 mph100%29.71 "Hg3 mi
5:30 AM37 °FLight rain. Fog.10 mph100%29.71 "Hg2 mi
5:00 AM37 °FLight rain. Fog.10 mph100%29.74 "Hg2 mi
4:30 AM37 °FLight rain. Fog.10 mph100%29.74 "Hg3 mi
4:00 AM37 °FLight rain. Fog.8 mph100%29.74 "Hg3 mi
3:30 AM37 °FLight rain. Fog.10 mph100%29.77 "Hg3 mi
3:00 AM39 °FFog.10 mph93%29.77 "Hg3 mi
2:30 AM39 °FFog.10 mph93%29.80 "Hg3 mi
2:00 AM37 °FFog.10 mph100%29.80 "Hg3 mi
1:30 AM37 °FDrizzle. Fog.10 mph100%29.80 "Hg3 mi
1:00 AM37 °FDrizzle. Fog.10 mph100%29.80 "Hg3 mi
12:30 AM37 °FFog.10 mph100%29.83 "Hg2 mi
12:00 AM37 °FLight rain. Fog.10 mph100%29.83 "Hg3 mi
11:30 PM
Sun, Mar 1
37 °FLight rain. Fog.10 mph100%29.83 "Hg2 mi
10:30 PM36 °FDrizzle. Fog.10 mph100%29.86 "Hg2 mi
10:00 PM36 °FDrizzle. Low clouds.10 mph100%29.89 "Hg5 mi
Weather by CustomWeather, © 2015

See weather overviewHow to use our weather pages